SRR94 EDDF-LFML

Flight info

Callsign SRR94
Flight time 1h 15m
Altitude 33000
Route ANEKI3F ANEKI Y163 HERBI Y164 MOPAN DCT LUTIX DCT BENOT DCT NEMOS DCT GEVEA DCT INCUS DCT BALSI
Aircraft B77L/H-SDE1E2E3FGHIJ2J3J4J5M1RWXY/LB1D1

Departure

Time 2026-05-07 05:28
Airport Frankfurt Main Airport (EDDF)

Arrival

Time 2026-05-07 06:44
Airport Marseille Provence Airport (LFML)
Time Latitude Longitude Altitude Speed Heading
2026-05-07 05:00 50.04058 8.54778 338 ft 0 kts 74°
2026-05-07 05:16 50.04053 8.54753 360 ft 4 kts 77°
2026-05-07 05:16 50.04049 8.54712 358 ft 4 kts 88°
2026-05-07 05:17 50.04050 8.54673 358 ft 4 kts 108°
2026-05-07 05:17 50.04060 8.54644 360 ft 4 kts 148°
2026-05-07 05:17 50.04066 8.54639 360 ft 0 kts 159°
2026-05-07 05:19 50.04039 8.54654 354 ft 7 kts 159°
2026-05-07 05:19 50.03994 8.54681 358 ft 7 kts 156°
2026-05-07 05:19 50.03962 8.54738 354 ft 7 kts 114°
2026-05-07 05:20 50.03970 8.54811 358 ft 7 kts 72°
2026-05-07 05:20 50.03987 8.54883 354 ft 7 kts 69°
2026-05-07 05:20 50.03982 8.54956 353 ft 7 kts 128°
2026-05-07 05:20 50.03937 8.54988 354 ft 7 kts 158°
2026-05-07 05:21 50.03890 8.55016 360 ft 7 kts 159°
2026-05-07 05:21 50.03856 8.55140 360 ft 7 kts 72°
2026-05-07 05:21 50.03872 8.55217 357 ft 8 kts 72°
2026-05-07 05:22 50.03900 8.55329 358 ft 14 kts 68°
2026-05-07 05:22 50.03942 8.55500 358 ft 20 kts 70°
2026-05-07 05:22 50.03991 8.55708 355 ft 21 kts 70°
2026-05-07 05:22 50.04042 8.55919 355 ft 21 kts 70°
2026-05-07 05:23 50.04092 8.56130 355 ft 21 kts 70°
2026-05-07 05:23 50.04142 8.56341 358 ft 21 kts 69°
2026-05-07 05:23 50.04193 8.56552 357 ft 21 kts 69°
2026-05-07 05:23 50.04243 8.56761 358 ft 21 kts 69°
2026-05-07 05:24 50.04294 8.56972 358 ft 21 kts 69°
2026-05-07 05:24 50.04344 8.57183 354 ft 21 kts 69°
2026-05-07 05:24 50.04395 8.57394 358 ft 21 kts 70°
2026-05-07 05:24 50.04443 8.57603 358 ft 21 kts 70°
2026-05-07 05:25 50.04494 8.57814 355 ft 21 kts 70°
2026-05-07 05:25 50.04544 8.58026 358 ft 21 kts 70°
2026-05-07 05:25 50.04595 8.58238 357 ft 21 kts 70°
2026-05-07 05:25 50.04642 8.58434 352 ft 9 kts 69°
2026-05-07 05:26 50.04657 8.58524 357 ft 9 kts 95°
2026-05-07 05:26 50.04609 8.58581 354 ft 9 kts 154°
2026-05-07 05:26 50.04552 8.58621 360 ft 9 kts 156°
2026-05-07 05:26 50.04500 8.58621 355 ft 7 kts 218°
2026-05-07 05:27 50.04489 8.58589 360 ft 0 kts 249°
2026-05-07 05:27 50.04474 8.58526 355 ft 19 kts 249°
2026-05-07 05:27 50.04343 8.57983 355 ft 90 kts 250°
2026-05-07 05:28 50.04050 8.56759 357 ft 149 kts 250°
2026-05-07 05:28 50.03637 8.55042 436 ft 184 kts 250°
2026-05-07 05:28 50.03168 8.53185 1039 ft 186 kts 248°
2026-05-07 05:28 50.02655 8.51342 1762 ft 184 kts 244°
2026-05-07 05:29 50.01680 8.50012 2234 ft 200 kts 204°
2026-05-07 05:29 50.00289 8.49289 2485 ft 223 kts 198°
2026-05-07 05:29 49.98641 8.49157 2651 ft 255 kts 165°
2026-05-07 05:29 49.97145 8.50659 3229 ft 265 kts 130°
2026-05-07 05:30 49.95850 8.52693 3746 ft 272 kts 150°
2026-05-07 05:30 49.94038 8.53440 4514 ft 270 kts 180°
2026-05-07 05:30 49.92136 8.53413 5271 ft 274 kts 181°
2026-05-07 05:30 49.90242 8.53433 6131 ft 276 kts 181°
2026-05-07 05:31 49.88304 8.53498 6933 ft 279 kts 180°
2026-05-07 05:31 49.86349 8.53595 7677 ft 284 kts 180°
2026-05-07 05:31 49.84359 8.53717 8420 ft 288 kts 180°
2026-05-07 05:31 49.82341 8.53853 9194 ft 292 kts 180°
2026-05-07 05:32 49.80297 8.53996 9944 ft 296 kts 180°
2026-05-07 05:32 49.78197 8.54139 10480 ft 309 kts 180°
2026-05-07 05:32 49.75990 8.54059 10677 ft 332 kts 186°
2026-05-07 05:32 49.73592 8.53732 10882 ft 357 kts 187°
2026-05-07 05:33 49.71041 8.53328 11277 ft 375 kts 187°
2026-05-07 05:33 49.68432 8.52923 11979 ft 385 kts 187°
2026-05-07 05:33 49.65745 8.52526 12911 ft 390 kts 186°
2026-05-07 05:33 49.63017 8.52142 13863 ft 394 kts 186°
2026-05-07 05:34 49.60270 8.51767 14684 ft 398 kts 186°
2026-05-07 05:34 49.57487 8.51395 15506 ft 403 kts 185°
2026-05-07 05:34 49.55631 8.51149 16047 ft 406 kts 185°
2026-05-07 05:34 49.52798 8.50775 16854 ft 411 kts 185°
2026-05-07 05:35 49.49928 8.50397 17645 ft 416 kts 185°
2026-05-07 05:35 49.46069 8.49889 18626 ft 422 kts 185°
2026-05-07 05:35 49.44123 8.49633 19076 ft 425 kts 185°
2026-05-07 05:35 49.41161 8.49243 19772 ft 429 kts 185°
2026-05-07 05:36 49.38170 8.48849 20446 ft 433 kts 185°
2026-05-07 05:36 49.34146 8.48321 21329 ft 439 kts 185°
2026-05-07 05:36 49.32127 8.48056 21755 ft 442 kts 185°
2026-05-07 05:36 49.29035 8.47654 22394 ft 446 kts 185°
2026-05-07 05:37 49.25919 8.47255 23024 ft 451 kts 185°
2026-05-07 05:37 49.22764 8.46858 23629 ft 455 kts 185°
2026-05-07 05:37 49.19629 8.46464 24154 ft 459 kts 185°
2026-05-07 05:37 49.16416 8.46060 24692 ft 463 kts 185°
2026-05-07 05:38 49.13181 8.45653 25229 ft 466 kts 185°
2026-05-07 05:38 49.09982 8.45251 25741 ft 470 kts 185°
2026-05-07 05:38 49.06662 8.44781 26245 ft 474 kts 187°
2026-05-07 05:38 49.03438 8.43908 26739 ft 477 kts 193°
2026-05-07 05:39 49.00188 8.42733 27240 ft 480 kts 194°
2026-05-07 05:39 48.96953 8.41547 27726 ft 484 kts 194°
2026-05-07 05:39 48.93652 8.40353 28205 ft 487 kts 194°
2026-05-07 05:39 48.90330 8.39175 28685 ft 491 kts 193°
2026-05-07 05:40 48.86978 8.38004 29127 ft 494 kts 193°
2026-05-07 05:40 48.83622 8.36839 29609 ft 496 kts 193°
2026-05-07 05:40 48.80286 8.35682 30181 ft 495 kts 193°
2026-05-07 05:40 48.76930 8.34509 30752 ft 492 kts 194°
2026-05-07 05:41 48.73600 8.33306 31418 ft 487 kts 194°
2026-05-07 05:41 48.70327 8.32107 32068 ft 483 kts 194°
2026-05-07 05:41 48.67057 8.30906 32643 ft 479 kts 194°
2026-05-07 05:41 48.63865 8.29740 33028 ft 479 kts 194°
2026-05-07 05:42 48.60621 8.28561 32976 ft 477 kts 194°
2026-05-07 05:42 48.54184 8.26234 32987 ft 474 kts 194°
2026-05-07 05:43 48.47764 8.23919 32979 ft 475 kts 194°
2026-05-07 05:43 48.41357 8.21586 32995 ft 475 kts 194°
2026-05-07 05:44 48.34911 8.19237 32983 ft 476 kts 194°
2026-05-07 05:44 48.28508 8.16915 32994 ft 476 kts 194°
2026-05-07 05:45 48.22210 8.13846 33007 ft 475 kts 205°
2026-05-07 05:45 48.16272 8.09442 32988 ft 476 kts 207°
2026-05-07 05:46 48.10356 8.04994 32983 ft 474 kts 207°
2026-05-07 05:46 48.04477 8.00632 32981 ft 473 kts 207°
2026-05-07 05:47 47.98608 7.96319 32986 ft 470 kts 207°
2026-05-07 05:47 47.92731 7.92016 32991 ft 469 kts 207°
2026-05-07 05:48 47.86875 7.87736 33011 ft 468 kts 207°
2026-05-07 05:48 47.81055 7.83490 32992 ft 468 kts 207°
2026-05-07 05:49 47.75181 7.79216 33014 ft 469 kts 207°
2026-05-07 05:49 47.69345 7.74980 33016 ft 469 kts 207°
2026-05-07 05:50 47.63464 7.70724 33017 ft 470 kts 207°
2026-05-07 05:50 47.57566 7.66465 33024 ft 471 kts 207°
2026-05-07 05:51 47.51638 7.62194 33021 ft 472 kts 207°
2026-05-07 05:51 47.45745 7.57960 33014 ft 473 kts 207°
2026-05-07 05:52 47.39806 7.53704 33017 ft 474 kts 207°
2026-05-07 05:52 47.33902 7.49483 33019 ft 474 kts 207°
2026-05-07 05:53 47.27975 7.45255 33017 ft 474 kts 207°
2026-05-07 05:53 47.22027 7.41023 33020 ft 474 kts 207°
2026-05-07 05:54 47.16477 7.35879 33030 ft 470 kts 221°
2026-05-07 05:54 47.11991 7.29011 33026 ft 468 kts 233°
2026-05-07 05:55 47.08009 7.21390 33012 ft 469 kts 233°
2026-05-07 05:55 47.03971 7.13925 33012 ft 469 kts 232°
2026-05-07 05:56 46.99869 7.06464 33011 ft 469 kts 232°
2026-05-07 05:56 46.95790 6.99040 33019 ft 469 kts 232°
2026-05-07 05:57 46.91632 6.91668 33021 ft 469 kts 228°
2026-05-07 05:57 46.86781 6.85261 33020 ft 470 kts 220°
2026-05-07 05:58 46.81703 6.79308 33027 ft 470 kts 220°
2026-05-07 05:58 46.76592 6.73289 33017 ft 471 kts 220°
2026-05-07 05:59 46.71531 6.67293 33006 ft 471 kts 220°
2026-05-07 05:59 46.66436 6.61257 33009 ft 471 kts 220°
2026-05-07 06:00 46.61380 6.55282 33001 ft 471 kts 220°
2026-05-07 06:00 46.56271 6.49261 33001 ft 471 kts 220°
2026-05-07 06:01 46.51203 6.43306 33000 ft 471 kts 220°
2026-05-07 06:01 46.46094 6.37316 33007 ft 470 kts 220°
2026-05-07 06:02 46.40990 6.31346 33014 ft 470 kts 220°
2026-05-07 06:02 46.35922 6.25433 33013 ft 469 kts 220°
2026-05-07 06:03 46.30825 6.19499 33014 ft 469 kts 220°
2026-05-07 06:03 46.25417 6.14363 33010 ft 471 kts 206°
2026-05-07 06:04 46.19113 6.11603 33024 ft 475 kts 191°
2026-05-07 06:04 46.12600 6.10263 33023 ft 476 kts 190°
2026-05-07 06:05 46.06029 6.08911 33020 ft 476 kts 191°
2026-05-07 06:05 45.99504 6.07487 33016 ft 476 kts 191°
2026-05-07 06:06 45.92949 6.06036 33016 ft 476 kts 191°
2026-05-07 06:06 45.86382 6.04593 33027 ft 476 kts 191°
2026-05-07 06:07 45.79863 6.03157 33024 ft 476 kts 191°
2026-05-07 06:07 45.73308 6.01704 33017 ft 476 kts 192°
2026-05-07 06:08 45.66741 6.00253 33009 ft 475 kts 192°
2026-05-07 06:08 45.60197 5.98812 33018 ft 475 kts 192°
2026-05-07 06:09 45.53709 5.97386 33017 ft 474 kts 192°
2026-05-07 06:09 45.47420 5.95009 33028 ft 462 kts 212°
2026-05-07 06:09 45.44860 5.92314 33012 ft 455 kts 228°
2026-05-07 06:10 45.42732 5.89083 33054 ft 454 kts 229°
2026-05-07 06:10 45.38312 5.82561 33009 ft 459 kts 228°
2026-05-07 06:11 45.33798 5.76088 32996 ft 462 kts 228°
2026-05-07 06:11 45.29245 5.69608 33016 ft 462 kts 228°
2026-05-07 06:11 45.26970 5.66372 32794 ft 464 kts 228°
2026-05-07 06:12 45.24677 5.63112 32211 ft 466 kts 228°
2026-05-07 06:12 45.22397 5.59875 31665 ft 460 kts 228°
2026-05-07 06:12 45.20146 5.56683 31118 ft 455 kts 228°
2026-05-07 06:12 45.17942 5.53559 30576 ft 450 kts 228°
2026-05-07 06:13 45.15726 5.50419 30030 ft 446 kts 228°
2026-05-07 06:13 45.13537 5.47323 29407 ft 442 kts 228°
2026-05-07 06:13 45.11394 5.44296 28875 ft 436 kts 228°
2026-05-07 06:13 45.09267 5.41302 28617 ft 426 kts 228°
2026-05-07 06:14 45.07185 5.38374 28303 ft 420 kts 228°
2026-05-07 06:14 45.05103 5.35446 28017 ft 422 kts 228°
2026-05-07 06:14 45.03014 5.32506 27747 ft 426 kts 228°
2026-05-07 06:14 45.00908 5.29546 27443 ft 426 kts 228°
2026-05-07 06:15 44.98835 5.26640 27153 ft 423 kts 228°
2026-05-07 06:15 44.96742 5.23709 26855 ft 421 kts 228°
2026-05-07 06:15 44.94673 5.20816 26590 ft 418 kts 228°
2026-05-07 06:15 44.92610 5.17931 26299 ft 415 kts 228°
2026-05-07 06:16 44.90583 5.15100 26025 ft 413 kts 228°
2026-05-07 06:16 44.88538 5.12247 25745 ft 412 kts 228°
2026-05-07 06:16 44.86499 5.09404 25446 ft 411 kts 227°
2026-05-07 06:16 44.84457 5.06559 25175 ft 410 kts 227°
2026-05-07 06:17 44.82452 5.03769 24905 ft 409 kts 227°
2026-05-07 06:17 44.80427 5.00954 24613 ft 409 kts 227°
2026-05-07 06:17 44.78403 4.98144 24329 ft 408 kts 227°
2026-05-07 06:17 44.76378 4.95337 24051 ft 407 kts 227°
2026-05-07 06:18 44.74243 4.92751 23732 ft 407 kts 214°
2026-05-07 06:18 44.71617 4.91232 23464 ft 412 kts 195°
2026-05-07 06:18 44.68765 4.90824 23141 ft 417 kts 179°
2026-05-07 06:18 44.65927 4.91371 22856 ft 415 kts 173°
2026-05-07 06:19 44.63074 4.92081 22551 ft 415 kts 172°
2026-05-07 06:19 44.60237 4.92807 22259 ft 415 kts 172°
2026-05-07 06:19 44.57395 4.93525 21977 ft 414 kts 172°
2026-05-07 06:19 44.54550 4.94226 21685 ft 413 kts 172°
2026-05-07 06:20 44.51708 4.94909 21394 ft 412 kts 173°
2026-05-07 06:20 44.48914 4.95569 21115 ft 411 kts 173°
2026-05-07 06:20 44.46100 4.96226 20830 ft 409 kts 173°
2026-05-07 06:20 44.43292 4.96878 20549 ft 407 kts 173°
2026-05-07 06:21 44.40500 4.97527 20270 ft 404 kts 173°
2026-05-07 06:21 44.37731 4.98168 20000 ft 402 kts 173°
2026-05-07 06:21 44.34983 4.98804 19726 ft 399 kts 173°
2026-05-07 06:21 44.32280 4.99430 19464 ft 396 kts 173°
2026-05-07 06:22 44.29569 5.00057 19191 ft 394 kts 173°
2026-05-07 06:22 44.24207 5.01296 18655 ft 389 kts 173°
2026-05-07 06:22 44.21530 5.01913 18396 ft 387 kts 173°
2026-05-07 06:23 44.18873 5.02526 18109 ft 385 kts 173°
2026-05-07 06:23 44.16235 5.03133 17817 ft 383 kts 173°
2026-05-07 06:23 44.14489 5.03535 17630 ft 382 kts 173°
2026-05-07 06:23 44.11024 5.04332 17273 ft 378 kts 173°
2026-05-07 06:24 44.08430 5.04928 17011 ft 376 kts 173°
2026-05-07 06:24 44.06718 5.05320 16827 ft 375 kts 173°
2026-05-07 06:24 44.04140 5.05911 16586 ft 374 kts 173°
2026-05-07 06:24 44.00739 5.06691 16219 ft 372 kts 172°
2026-05-07 06:25 43.98173 5.07279 15968 ft 372 kts 172°
2026-05-07 06:25 43.96483 5.07666 15800 ft 371 kts 172°
2026-05-07 06:25 43.93927 5.08249 15538 ft 371 kts 172°
2026-05-07 06:25 43.90559 5.09018 15199 ft 370 kts 172°
2026-05-07 06:26 43.88843 5.09411 15022 ft 369 kts 172°
2026-05-07 06:26 43.86326 5.10236 14655 ft 372 kts 164°
2026-05-07 06:26 43.83907 5.11394 14277 ft 372 kts 161°
2026-05-07 06:26 43.81485 5.12647 13898 ft 369 kts 161°
2026-05-07 06:27 43.79088 5.13868 13479 ft 364 kts 162°
2026-05-07 06:27 43.76718 5.15031 13081 ft 359 kts 162°
2026-05-07 06:27 43.74362 5.16155 12701 ft 354 kts 163°
2026-05-07 06:27 43.72042 5.17251 12340 ft 352 kts 163°
2026-05-07 06:28 43.69727 5.18329 11967 ft 349 kts 163°
2026-05-07 06:28 43.67427 5.19361 11601 ft 345 kts 164°
2026-05-07 06:28 43.65158 5.20374 11258 ft 340 kts 164°
2026-05-07 06:28 43.62921 5.21377 10893 ft 335 kts 164°
2026-05-07 06:29 43.60718 5.22366 10550 ft 330 kts 164°
2026-05-07 06:29 43.58550 5.23275 10201 ft 319 kts 171°
2026-05-07 06:29 43.56408 5.23341 9923 ft 300 kts 189°
2026-05-07 06:29 43.54396 5.23019 9732 ft 291 kts 189°
2026-05-07 06:30 43.52389 5.22733 9355 ft 288 kts 188°
2026-05-07 06:30 43.50377 5.22467 8982 ft 286 kts 188°
2026-05-07 06:30 43.48435 5.22221 8671 ft 282 kts 188°
2026-05-07 06:30 43.46493 5.21977 8361 ft 278 kts 188°
2026-05-07 06:31 43.44591 5.21740 8069 ft 269 kts 188°
2026-05-07 06:31 43.42752 5.21519 7795 ft 262 kts 188°
2026-05-07 06:31 43.40935 5.21312 7538 ft 264 kts 188°
2026-05-07 06:31 43.39082 5.21101 7280 ft 271 kts 188°
2026-05-07 06:32 43.37197 5.20886 7016 ft 272 kts 188°
2026-05-07 06:32 43.35327 5.20674 6715 ft 267 kts 188°
2026-05-07 06:32 43.33492 5.20468 6442 ft 263 kts 188°
2026-05-07 06:32 43.31689 5.20262 6153 ft 258 kts 188°
2026-05-07 06:33 43.29904 5.20062 5883 ft 256 kts 188°
2026-05-07 06:33 43.28155 5.20210 5591 ft 254 kts 163°
2026-05-07 06:33 43.26639 5.21433 5359 ft 253 kts 143°
2026-05-07 06:33 43.25273 5.22975 5093 ft 256 kts 139°
2026-05-07 06:34 43.23983 5.24687 4850 ft 260 kts 137°
2026-05-07 06:34 43.22717 5.26428 4577 ft 256 kts 137°
2026-05-07 06:34 43.21488 5.28126 4314 ft 242 kts 136°
2026-05-07 06:34 43.20351 5.29705 4305 ft 225 kts 136°
2026-05-07 06:35 43.19250 5.31234 4142 ft 227 kts 136°
2026-05-07 06:35 43.18151 5.32759 3988 ft 223 kts 136°
2026-05-07 06:35 43.17088 5.34267 3736 ft 222 kts 130°
2026-05-07 06:35 43.16477 5.36177 3437 ft 221 kts 94°
2026-05-07 06:36 43.16757 5.38186 3179 ft 214 kts 58°
2026-05-07 06:36 43.17666 5.39751 2986 ft 208 kts 44°
2026-05-07 06:36 43.18666 5.41180 3033 ft 209 kts 44°
2026-05-07 06:36 43.19690 5.42627 3050 ft 214 kts 44°
2026-05-07 06:37 43.20733 5.44096 3054 ft 215 kts 43°
2026-05-07 06:37 43.21774 5.45559 3065 ft 214 kts 43°
2026-05-07 06:37 43.22836 5.46981 3028 ft 210 kts 33°
2026-05-07 06:37 43.24150 5.47571 3054 ft 195 kts 354°
2026-05-07 06:38 43.25338 5.46922 3056 ft 182 kts 320°
2026-05-07 06:38 43.26328 5.45794 3071 ft 187 kts 320°
2026-05-07 06:38 43.27299 5.44640 3049 ft 182 kts 316°
2026-05-07 06:38 43.28207 5.43438 3042 ft 180 kts 314°
2026-05-07 06:39 43.29090 5.42214 3042 ft 181 kts 314°
2026-05-07 06:39 43.29962 5.40984 3041 ft 179 kts 313°
2026-05-07 06:39 43.30814 5.39778 3047 ft 178 kts 313°
2026-05-07 06:39 43.31676 5.38555 3047 ft 178 kts 313°
2026-05-07 06:40 43.32538 5.37332 3051 ft 178 kts 313°
2026-05-07 06:40 43.33405 5.36105 3068 ft 180 kts 313°
2026-05-07 06:40 43.34283 5.34856 3061 ft 183 kts 313°
2026-05-07 06:40 43.35148 5.33624 3040 ft 174 kts 313°
2026-05-07 06:41 43.35979 5.32443 2813 ft 172 kts 313°
2026-05-07 06:41 43.36803 5.31269 2483 ft 167 kts 314°
2026-05-07 06:41 43.37568 5.30187 2193 ft 150 kts 314°
2026-05-07 06:41 43.38273 5.29178 1923 ft 145 kts 314°
2026-05-07 06:42 43.38984 5.28170 1669 ft 149 kts 314°
2026-05-07 06:42 43.39702 5.27147 1447 ft 149 kts 314°
2026-05-07 06:42 43.40435 5.26126 1174 ft 150 kts 315°
2026-05-07 06:42 43.41174 5.25094 826 ft 153 kts 313°
2026-05-07 06:43 43.41906 5.24032 489 ft 153 kts 314°
2026-05-07 06:43 43.42637 5.22981 276 ft 153 kts 313°
2026-05-07 06:43 43.43381 5.21918 91 ft 153 kts 313°
2026-05-07 06:43 43.44071 5.20934 39 ft 126 kts 314°
2026-05-07 06:44 43.44576 5.20219 27 ft 82 kts 314°
2026-05-07 06:44 43.44823 5.19867 19 ft 23 kts 310°
2026-05-07 06:44 43.44923 5.19786 18 ft 13 kts
2026-05-07 06:44 43.44982 5.19873 18 ft 13 kts 82°
2026-05-07 06:45 43.44933 5.19973 19 ft 11 kts 133°
2026-05-07 06:45 43.44881 5.20051 20 ft 11 kts 133°
2026-05-07 06:45 43.44827 5.20126 25 ft 11 kts 134°
2026-05-07 06:45 43.44773 5.20202 26 ft 11 kts 134°
2026-05-07 06:46 43.44720 5.20277 30 ft 11 kts 134°
2026-05-07 06:46 43.44667 5.20353 26 ft 11 kts 134°
2026-05-07 06:46 43.44613 5.20429 28 ft 11 kts 134°
2026-05-07 06:46 43.44560 5.20505 29 ft 11 kts 134°
2026-05-07 06:47 43.44503 5.20586 30 ft 13 kts 132°
2026-05-07 06:47 43.44429 5.20692 32 ft 18 kts 134°
2026-05-07 06:47 43.44340 5.20822 34 ft 19 kts 131°
2026-05-07 06:47 43.44272 5.20976 36 ft 19 kts 124°
2026-05-07 06:48 43.44216 5.21065 38 ft 2 kts 131°
2026-05-07 06:48 43.44205 5.21082 38 ft 2 kts 131°
2026-05-07 06:48 43.44203 5.21085 38 ft 0 kts 131°
2026-05-07 06:50 43.44198 5.21092 38 ft 5 kts 135°
2026-05-07 06:50 43.44148 5.21160 40 ft 12 kts 134°
2026-05-07 06:50 43.44089 5.21247 42 ft 12 kts 132°
2026-05-07 06:50 43.44069 5.21335 43 ft 9 kts 71°
2026-05-07 06:51 43.44110 5.21402 42 ft 9 kts 44°
2026-05-07 06:51 43.44144 5.21474 42 ft 9 kts 78°
2026-05-07 06:51 43.44168 5.21545 41 ft 5 kts 36°
2026-05-07 06:51 43.44174 5.21548 42 ft 1 kts 20°
2026-05-07 06:52 43.44185 5.21548 42 ft 2 kts 356°
2026-05-07 06:52 43.44198 5.21534 42 ft 3 kts 311°
2026-05-07 06:52 43.44215 5.21505 41 ft 5 kts 309°
2026-05-07 06:52 43.44232 5.21476 41 ft 0 kts 310°